{"data":{"norad_id":68214,"intl_designator":"2026-053H","name":"STARLINK-35854","alt_names":[],"object_type":"PAYLOAD","status":"ACTIVE","operator":null,"country":"US","launch_date":"2026-03-17","launch_site_code":"AFWTR","launch_vehicle":null,"mission":null,"orbit_class":"UNKNOWN","rcs_meters":null,"size_class":null,"mass_kg":null,"dimensions":null,"purposes":["comms"],"wikipedia_slug":null,"has_3d_model":false,"image_url":null,"decayed_at":null,"tle_current":{"epoch":"2026-05-25T02:47:29.401728Z","epoch_age_seconds":58360,"freshness":"FRESH","line1":"1 68214U 26053H   26145.11631252 -.00004056  00000+0 -12354-3 0  9990","line2":"2 68214  97.2859  20.6054 0000797 128.9095 231.2219 15.33405143 11918","mean_motion":15.33405143,"eccentricity":7.97e-5,"inclination_deg":97.2859,"raan_deg":20.6054,"arg_perigee_deg":128.9095,"mean_anomaly_deg":231.2219,"bstar":-0.00012354,"rev_number":1191,"period_min":93.908645511827,"perigee_km":465.11631267552,"apogee_km":466.20721419841,"semimajor_km":6843.798763437,"source":"CELESTRAK","updated_at":"2026-05-25T13:38:21.878778Z"}}}